Home > Weather > Mödling > Past weeks

Flag for Austria Past Weather in Mödling, Lower Austria, Austria — Yesterday and Last 2 Weeks

Now
62 °F

Passing clouds.


Feels Like: 62 °F
Forecast: 58 / 68 °F
Wind: 2 mph from East

Location: Wien / Hohe Warte

Current Time: May 30, 2016 at 7:01:21 AM

Latest Report: May 30, 2016 at 6:00 AM


Visibility: 28 mi

Pressure: 29.70 "Hg

Humidity: 85%

Dew Point: 57 °F

Location of MödlingLocation

Past Weather in Mödling — Graph

°F

Mödling Temperature Yesterday

Maximum temperature yesterday: 81 °F (at 4:00 PM)
Minimum temperature yesterday: 62 °F (at 6:00 AM)
Average temperature yesterday: 72 °F

High & Low Weather Summary for the Past Weeks

 TemperatureHumidityPressure
High81 °F (May 29, 4:00 PM)98% (May 29, 6:00 AM)30.13 "Hg (May 29, 6:00 AM)
Low44 °F (May 16, 4:00 AM)36% (May 18, 1:00 PM)29.61 "Hg (May 29, 7:00 PM)
Average62 °F66%29.92 "Hg
* Reported May 15 5:00 AM — May 30 5:00 AM, Mödling, Weather by CustomWeather, © 2016

Note: Actual official high and low records may vary slightly from our data, if they occured in-between our weather recording intervals... More about our weather records

Advertising

Mödling Weather History for the Previous 24 Hours

Scroll right to see more
 ConditionsComfort  
Time TempWeatherWind HumidityBarometerVisibility
5:00 AM
Mon, May 30
63 °FScattered clouds.2 mph78%29.68 "Hg28 mi
4:00 AM65 °FPassing clouds.3 mph65%29.66 "Hg25 mi
3:00 AM67 °FMild.2 mph62%29.64 "HgN/A
2:00 AM70 °FPassing clouds.3 mph53%29.65 "Hg19 mi
1:00 AM71 °FMild.6 mph48%29.65 "HgN/A
12:00 AM72 °FMild.5 mph50%29.65 "HgN/A
11:00 PM
Sun, May 29
74 °FPassing clouds.6 mph57%29.64 "Hg22 mi
10:00 PM76 °FPassing clouds.6 mph60%29.62 "Hg25 mi
9:00 PM77 °FPassing clouds.6 mph59%29.62 "Hg25 mi
8:00 PM79 °FScattered clouds.7 mph54%29.62 "Hg25 mi
7:00 PM80 °FPartly sunny.7 mph53%29.61 "Hg28 mi
6:00 PM81 °FPartly sunny.8 mph51%29.62 "Hg34 mi
5:00 PM81 °FWarm.6 mph49%29.64 "HgN/A
4:00 PM81 °FOvercast.7 mph51%29.66 "Hg31 mi
3:00 PM80 °FOvercast.7 mph51%29.67 "Hg31 mi
2:00 PM79 °FPartly sunny.6 mph50%29.68 "Hg31 mi
1:00 PM78 °FScattered clouds.5 mph55%29.70 "Hg22 mi
12:00 PM76 °FMild.5 mph65%29.71 "HgN/A
11:00 AM72 °FOvercast.5 mph76%29.72 "Hg14 mi
10:00 AM71 °FOvercast.2 mph77%29.72 "Hg10 mi
9:00 AM70 °FPassing clouds.1 mph80%29.74 "Hg9 mi
8:00 AM68 °FPassing clouds.1 mph83%29.75 "Hg8 mi
7:00 AM65 °FPassing clouds.2 mph91%29.75 "Hg7 mi
Weather by CustomWeather, © 2016

See weather overviewHow to use our weather pages